Weather History for Bowie, TX

Change the Weather History Date:

Friday, September 27, 2013

  Actual Average (KSPS) Record (KSPS)
Temperature  
Mean Temperature 76 °F 71 °F  
Max Temperature 87 °F 84 °F 103 °F (1977)
Min Temperature 64 °F 59 °F 38 °F (1942)
Degree Days  
Heating Degree Days 0 1  
Month to date heating degree days 9  
Since 1 July heating degree days 9  
Cooling Degree Days 10 7  
Month to date cooling degree days 315  
Year to date cooling degree days 2260  
Growing Degree Days 26 (Base 50)    
Moisture  
Dew Point 62 °F    
Average Humidity 63    
Maximum Humidity 83    
Minimum Humidity 43    
Precipitation  
Precipitation 0.00 in 0.08 in 6.19 in (1980)
Month to date precipitation 2.58  
Year to date precipitation 22.31  
Sea Level Pressure  
Sea Level Pressure 29.88 in    
Wind  
Wind Speed 6 mph (SE)    
Max Wind Speed 17 mph    
Max Gust Speed 26 mph    
Visibility 10 miles    
Events      
T = Trace of Precipitation, MM = Missing Value Source: NWS Daily Summary

Daily Weather History Graph

Daily Weather History Graph

Search for Another Location

Airport:

Trip Planner

Search our weather history database for the weather conditions in past years. The results will help you decide how hot, cold, wet, or windy it might be!

Date:

Astronomy

Sep. 27, 2013 Rise Set
Actual Time 7:22 AM CDT 7:20 PM CDT
Civil Twilight 6:58 AM CDT 7:45 PM CDT
Nautical Twilight 6:29 AM CDT 8:14 PM CDT
Astronomical Twilight 6:00 AM CDT 8:43 PM CDT
Moon 12:35 AM CDT (9/27) 2:44 PM CDT (9/27)
Length of Visible Light 12h 47m
Length of Day
11h 57m
Last Quarter, 45% of the Moon is Illuminated
Sep 27
Last Quarter
Oct 4
New
Oct 11
First Quarter
Oct 18
Full
Oct 26
Last Quarter

Hourly Weather History & Observations

Time (CDT) Temp. Heat Index Dew Point Humidity Pressure Visibility Wind Dir Wind Speed Gust Speed Precip Events Conditions
12:15 AM 68.0 °F - 51.8 °F 56% 29.88 in 10.0 mi SE 3.5 mph - N/A   Clear
12:35 AM 66.2 °F - 51.8 °F 60% 29.89 in 10.0 mi ESE 3.5 mph - N/A   Clear
12:55 AM 68.0 °F - 53.6 °F 60% 29.89 in 10.0 mi ESE 3.5 mph - N/A   Clear
1:15 AM 66.2 °F - 53.6 °F 64% 29.89 in 10.0 mi ESE 3.5 mph - N/A   Clear
1:35 AM 64.4 °F - 53.6 °F 68% 29.89 in 10.0 mi Calm Calm - N/A   Clear
1:55 AM 64.4 °F - 53.6 °F 68% 29.90 in 10.0 mi East 4.6 mph - N/A   Clear
2:15 AM 64.4 °F - 53.6 °F 68% 29.90 in 10.0 mi Calm Calm - N/A   Clear
2:35 AM 64.4 °F - 53.6 °F 68% 29.90 in 10.0 mi Calm Calm - N/A   Clear
2:55 AM 64.4 °F - 53.6 °F 68% 29.90 in 10.0 mi Calm Calm - N/A   Clear
3:15 AM 64.4 °F - 53.6 °F 68% 29.90 in 10.0 mi ESE 4.6 mph - N/A   Clear
3:35 AM 64.4 °F - 53.6 °F 68% 29.90 in 10.0 mi ESE 4.6 mph - N/A   Clear
3:55 AM 64.4 °F - 53.6 °F 68% 29.90 in 10.0 mi ESE 3.5 mph - N/A   Clear
4:15 AM 64.4 °F - 55.4 °F 73% 29.89 in 10.0 mi ESE 3.5 mph - N/A   Scattered Clouds
4:35 AM 66.2 °F - 55.4 °F 68% 29.89 in 10.0 mi ESE 3.5 mph - N/A   Mostly Cloudy
4:55 AM 64.4 °F - 55.4 °F 73% 29.89 in 10.0 mi Calm Calm - N/A   Mostly Cloudy
5:15 AM 64.4 °F - 57.2 °F 77% 29.90 in 10.0 mi Calm Calm - N/A   Mostly Cloudy
5:35 AM 64.4 °F - 59.0 °F 83% 29.90 in 10.0 mi Calm Calm - N/A   Mostly Cloudy
5:55 AM 66.2 °F - 59.0 °F 78% 29.90 in 10.0 mi Calm Calm - N/A   Mostly Cloudy
6:15 AM 64.4 °F - 59.0 °F 83% 29.90 in 10.0 mi Calm Calm - N/A   Mostly Cloudy
6:35 AM 64.4 °F - 59.0 °F 83% 29.91 in 10.0 mi Calm Calm - N/A   Scattered Clouds
6:55 AM 64.4 °F - 59.0 °F 83% 29.91 in 10.0 mi Calm Calm - N/A   Clear
7:15 AM 64.4 °F - 59.0 °F 83% 29.91 in 10.0 mi Calm Calm - N/A   Clear
7:35 AM 64.4 °F - 59.0 °F 83% 29.91 in 10.0 mi East 3.5 mph - N/A   Clear
7:55 AM 64.4 °F - 59.0 °F 83% 29.92 in 10.0 mi Calm Calm - N/A   Clear
8:15 AM 66.2 °F - 60.8 °F 83% 29.92 in 10.0 mi ESE 3.5 mph - N/A   Clear
8:35 AM 69.8 °F - 60.8 °F 73% 29.92 in 10.0 mi ESE 4.6 mph - N/A   Clear
8:55 AM 71.6 °F - 62.6 °F 73% 29.93 in 10.0 mi ESE 5.8 mph - N/A   Scattered Clouds
9:15 AM 71.6 °F - 62.6 °F 73% 29.93 in 10.0 mi ESE 5.8 mph - N/A   Scattered Clouds
9:35 AM 75.2 °F - 64.4 °F 69% 29.93 in 10.0 mi SE 8.1 mph - N/A   Clear
9:55 AM 77.0 °F - 66.2 °F 69% 29.93 in 10.0 mi SE 12.7 mph 19.6 mph N/A   Scattered Clouds
10:15 AM 78.8 °F - 66.2 °F 65% 29.93 in 10.0 mi SE 11.5 mph - N/A   Scattered Clouds
10:35 AM 80.6 °F 82.7 °F 66.2 °F 61% 29.93 in 10.0 mi SE 12.7 mph 16.1 mph N/A   Scattered Clouds
10:55 AM 80.6 °F 82.3 °F 64.4 °F 58% 29.93 in 10.0 mi SSE 11.5 mph 18.4 mph N/A   Clear
11:15 AM 80.6 °F 82.3 °F 64.4 °F 58% 29.93 in 10.0 mi SE 10.4 mph - N/A   Clear
11:35 AM 82.4 °F 83.9 °F 64.4 °F 54% 29.92 in 10.0 mi ESE 13.8 mph 20.7 mph N/A   Clear
11:55 AM 82.4 °F 83.4 °F 62.6 °F 51% 29.92 in 10.0 mi SE 13.8 mph 23.0 mph N/A   Scattered Clouds
12:15 PM 84.2 °F 85.0 °F 62.6 °F 48% 29.91 in 10.0 mi SE 13.8 mph 20.7 mph N/A   Mostly Cloudy
12:35 PM 82.4 °F 83.4 °F 62.6 °F 51% 29.91 in 10.0 mi SE 16.1 mph 24.2 mph N/A   Mostly Cloudy
12:55 PM 84.2 °F 85.0 °F 62.6 °F 48% 29.90 in 10.0 mi ESE 12.7 mph 21.9 mph N/A   Mostly Cloudy
1:15 PM 86.0 °F 86.6 °F 62.6 °F 45% 29.90 in 10.0 mi SE 13.8 mph 21.9 mph N/A   Scattered Clouds
1:35 PM 84.2 °F 85.0 °F 62.6 °F 48% 29.90 in 10.0 mi SE 11.5 mph 21.9 mph N/A   Scattered Clouds
1:55 PM 86.0 °F 87.3 °F 64.4 °F 48% 29.89 in 10.0 mi SE 12.7 mph 20.7 mph N/A   Mostly Cloudy
2:15 PM 84.2 °F 85.0 °F 62.6 °F 48% 29.88 in 10.0 mi SE 12.7 mph 26.5 mph N/A   Mostly Cloudy
2:35 PM 84.2 °F 85.0 °F 62.6 °F 48% 29.87 in 10.0 mi SE 13.8 mph 21.9 mph N/A   Mostly Cloudy
2:55 PM 84.2 °F 85.0 °F 62.6 °F 48% 29.86 in 10.0 mi SSE 16.1 mph 21.9 mph N/A   Mostly Cloudy
3:15 PM 86.0 °F 86.6 °F 62.6 °F 45% 29.85 in 10.0 mi SE 15.0 mph 21.9 mph N/A   Overcast
3:35 PM 86.0 °F 86.6 °F 62.6 °F 45% 29.85 in 10.0 mi SE 13.8 mph 20.7 mph N/A   Mostly Cloudy
3:55 PM 86.0 °F 86.6 °F 62.6 °F 45% 29.85 in 10.0 mi SE 17.3 mph 24.2 mph N/A   Scattered Clouds
4:15 PM 86.0 °F 86.6 °F 62.6 °F 45% 29.84 in 10.0 mi SE 17.3 mph 25.3 mph N/A   Scattered Clouds
4:35 PM 87.8 °F 88.5 °F 62.6 °F 43% 29.84 in 10.0 mi SE 15.0 mph 23.0 mph N/A   Mostly Cloudy
4:55 PM 86.0 °F 86.6 °F 62.6 °F 45% 29.84 in 10.0 mi SE 17.3 mph 24.2 mph N/A   Mostly Cloudy
5:15 PM 86.0 °F 87.3 °F 64.4 °F 48% 29.83 in 10.0 mi SE 15.0 mph 24.2 mph N/A   Mostly Cloudy
5:35 PM 86.0 °F 87.3 °F 64.4 °F 48% 29.83 in 10.0 mi SE 10.4 mph 26.5 mph N/A   Scattered Clouds
5:55 PM 86.0 °F 87.3 °F 64.4 °F 48% 29.84 in 10.0 mi SE 15.0 mph 23.0 mph N/A   Clear
6:15 PM 84.2 °F 85.6 °F 64.4 °F 51% 29.83 in 10.0 mi SE 12.7 mph 19.6 mph N/A   Scattered Clouds
6:35 PM 82.4 °F 83.9 °F 64.4 °F 54% 29.83 in 10.0 mi SE 15.0 mph 21.9 mph N/A   Clear
6:55 PM 82.4 °F 84.6 °F 66.2 °F 58% 29.83 in 10.0 mi ESE 10.4 mph 19.6 mph N/A   Scattered Clouds
7:15 PM 80.6 °F 82.3 °F 64.4 °F 58% 29.83 in 10.0 mi SE 10.4 mph 18.4 mph N/A   Clear
7:35 PM 80.6 °F 82.3 °F 64.4 °F 58% 29.83 in 10.0 mi SE 10.4 mph - N/A   Clear
7:55 PM 80.6 °F 82.7 °F 66.2 °F 61% 29.83 in 10.0 mi ESE 6.9 mph - N/A   Scattered Clouds
8:15 PM 80.6 °F 82.3 °F 64.4 °F 58% 29.84 in 10.0 mi ESE 9.2 mph - N/A   Scattered Clouds
8:35 PM 78.8 °F - 66.2 °F 65% 29.84 in 10.0 mi ESE 8.1 mph - N/A   Clear
8:55 PM 78.8 °F - 66.2 °F 65% 29.85 in 10.0 mi ESE 4.6 mph - N/A   Mostly Cloudy
9:15 PM 78.8 °F - 66.2 °F 65% 29.85 in 10.0 mi ESE 9.2 mph - N/A   Overcast
9:35 PM 78.8 °F - 66.2 °F 65% 29.85 in 10.0 mi ESE 8.1 mph 16.1 mph N/A   Scattered Clouds
9:55 PM 78.8 °F - 68.0 °F 69% 29.86 in 10.0 mi ESE 6.9 mph - N/A   Scattered Clouds
10:15 PM 78.8 °F - 68.0 °F 69% 29.86 in 10.0 mi ESE 10.4 mph 17.3 mph N/A   Scattered Clouds
10:35 PM 78.8 °F - 68.0 °F 69% 29.86 in 10.0 mi ESE 11.5 mph 20.7 mph N/A   Clear
10:55 PM 78.8 °F - 68.0 °F 69% 29.86 in 10.0 mi ESE 13.8 mph 23.0 mph N/A   Clear
11:15 PM 78.8 °F - 68.0 °F 69% 29.86 in 10.0 mi ESE 10.4 mph 19.6 mph N/A   Clear
11:35 PM 78.8 °F - 68.0 °F 69% 29.87 in 10.0 mi SE 11.5 mph 19.6 mph N/A   Clear
11:55 PM 78.8 °F - 68.0 °F 69% 29.86 in 10.0 mi ESE 12.7 mph 23.0 mph N/A   Scattered Clouds